Other Public Products
Issued by NWS Charleston, SC

Current Version | Previous Version | Graphics & Text | Print | Product List | Glossary On
Versions: 1 2 3 4 5 6 7 8 9 10 11 12 13 14 15 16 17 18 19 20 21 22 23 24 25 26 27 28 29 30 31 32 33 34 35 36 37 38 39 40 41 42 43 44 45 46 47 48 49 50
777 FPUS82 KCHS 211027 OPUCHS TEST...KCHS/KSAV Gateway Observations...TEST National Weather Service Charleston SC 600 AM EDT SAT APR 21 2018 NOTE: "fair" indicates few or no clouds below 12,000 feet with no significant weather and/or obstructions to visibility. SCZ050-WAZ558-NCZ071-TXZ119-213-PAZ071-DCZ001-FLZ074-172-MI076- NYZ176-178-MAZ016-IL014-TNZ027-NJZ106-GAZ044-MD014-211100- ...Gateway Observations for Charleston International... CITY SKY/WX TMP DP RH WIND PRES REMARKS Chas Airport FAIR 48 44 86 NE6 30.32S Seattle LGT RAIN 46 40 79 S13 30.19S Charlotte FAIR 44 33 65 N3 30.37R Dallas DFW MOCLDY 57 47 69 SE14 30.03F Dallas Love MOCLDY 58 47 66 SE9 30.06F Philladelphia FAIR 37 24 59 W3 30.45R Wash National FAIR 42 28 57 NE5 30.47R Baltimore FAIR 35 27 72 CALM 30.45S Miami FAIR 74 66 76 E3 30.08S Detroit MOCLDY 36 27 69 CALM 30.47S Newark FAIR 39 24 55 VRB5 30.40R WCI 36 Laguardia FAIR 42 26 53 NW13 30.38S J F K FAIR 39 25 57 NW12 30.40R WCI 32 Boston Logan FAIR 39 26 59 W13 30.28R WCI 31 Ft. Lauderdale FAIR 76 69 79 E8 30.07S Chicago O`Hare CLOUDY 43 17 35 CALM 30.43S Chicago Midway CLOUDY 43 21 41 E3 30.44S Houston Bush CLOUDY 61 54 77 E8 30.01F Houston Hobby CLOUDY 66 62 87 E9 29.99F Nashville FAIR 44 32 62 NE3 30.30F Atlanta FAIR 49 36 61 E6 30.30S $$ GAZ044-118-TXZ119-213-NCZ071-DCZ001-MDZ014-506-PAZ021-071-NJZ106- NYZ176-178-MAZ106-OHZ011-021-055-MIZ076-KYZ091-ILZ014-INZ047- MNZ060-ONZ431-211100- ...Gateway Observations for Savannah International... CITY SKY/WX TMP DP RH WIND PRES REMARKS Savannah Arpt MOCLDY 54 47 77 N5 30.29S Atlanta FAIR 49 36 61 E6 30.30S Charlotte FAIR 44 33 65 N3 30.37R Dallas DFW MOCLDY 57 47 69 SE14 30.03F Houston Bush CLOUDY 61 54 77 E8 30.01F Wash National FAIR 42 28 57 NE5 30.47R Wash Dulles FAIR 34 28 79 NW5 30.46R WCI 30 Baltimore FAIR 35 27 72 CALM 30.45S Philadelphia FAIR 37 24 59 W3 30.45R Newark FAIR 39 24 55 VRB5 30.40R WCI 36 Laguardia FAIR 42 26 53 NW13 30.38S J F K FAIR 39 25 57 NW12 30.40R WCI 32 Boston FAIR 39 26 59 W13 30.28R WCI 31 Pittsburg FAIR 29 23 78 CALM 30.43S Akron FAIR 31 20 63 CALM 30.46R Cleveland FAIR 30 24 78 SE5 30.49R WCI 25 Cincinnati FAIR 39 26 59 E7 30.40F WCI 34 Columbus FAIR 33 23 67 NE6 30.45S WCI 27 Detroit MOCLDY 36 27 69 CALM 30.47S Chicago O`Hare CLOUDY 43 17 35 CALM 30.43S Minneapolis CLOUDY 39 28 64 CALM 30.42S Indianapolis FAIR 44 26 49 E7 30.40S Toronto Canada PTCLDY 30 19 64 NW3 30.42F $$

USA.gov is the U.S. government's official web portal to all federal, state and local government web resources and services.